Weather Roundup
Issued by NWS Springfield, MO

Home | Current Version | Previous Version | Text Only | Print | Product List | Glossary On
Versions: 1 2 3 4 5 6 7 8 9 10 11 12 13 14 15 16 17 18 19 20 21 22 23 24 25 26 27 28 29 30 31 32 33 34 35 36 37 38 39 40 41 42 43 44 45 46 47 48 49 50
000
NZUS99 KSGF 301407
HRRSGF

HOURLY WEATHER
NATIONAL WEATHER SERVICE SPRINGFIELD MO
900 AM CDT THU JUL 30 2015

......SGF CWA......

CITY           SKY/WX    TMP DP  RH WIND       PRES   REMARKS
SPRINGFIELD    MOSUNNY   75  61  61 E6        30.21R
JOPLIN         PTSUNNY   79  65  62 NE8       30.19R
WEST PLAINS    SUNNY     76  62  62 NE8       30.22R
ROLLA          SUNNY     76  63  64 NE5       30.19R
OSAGE BEACH    SUNNY     75  63  64 CALM      30.21R
BRANSON        MOSUNNY   77  63  61 E9        30.22R

......SURROUNDING SGF CWA......

CITY           SKY/WX    TMP DP  RH WIND       PRES   REMARKS
CHANUTE        PTSUNNY   77  65  66 E8        30.20R
PARSONS        PTSUNNY   78  67  68 VRB5      30.19R
COFFEYVILLE    MOSUNNY   80  66  62 E10       30.17R
EMPORIA        CLOUDY    71  66  84 CALM      30.23R
GROVE OK       MOSUNNY   81  68  65 E7        30.18R
ROGERS AR      SUNNY     78  66  66 E12       30.20R
SILOAM SPRINGS MOSUNNY   79  66  65 E6        30.16R
HARRISON AR    MOSUNNY   77  64  64 E9        30.22R
NEAR YELLVILLE SUNNY     79  64  61 NE5       30.18R

......KANSAS AND MISSOURI......

CITY           SKY/WX    TMP DP  RH WIND       PRES   REMARKS
KANSAS CTY INT PTSUNNY   76  66  71 CALM      30.22R
DOWNTOWN KC    SUNNY     76  68  76 CALM      30.21R
COLUMBIA       SUNNY     77  65  66 N5        30.20R
SEDALIA        SUNNY     79  65  62 CALM      30.22R
ST JOSEPH      SUNNY     71  67  87 CALM      30.22R
ST LOUIS       SUNNY     81  62  52 NW6       30.17R
SPIRIT OF STL  SUNNY     75  66  73 SW3       30.16R
KIRKSVILLE     SUNNY     75  61  61 NW8       30.20R
WICHITA        TSTM      70  68  93 W6        30.25R FOG
TOPEKA         MOSUNNY   73  68  84 CALM      30.23R
OLATHE         SUNNY     76  64  66 SE5       30.22R

......TENNESSEE......

CITY           SKY/WX    TMP DP  RH WIND       PRES   REMARKS
MEMPHIS        SUNNY     84  65  52 NE18      30.09R
NASHVILLE      MOSUNNY   82  65  56 NE12      30.10R

......ARKANSAS.......

CITY           SKY/WX    TMP DP  RH WIND       PRES   REMARKS
FAYETTEVILLE   SUNNY     78  72  81 VRB6      30.18R
FT SMITH       SUNNY     83  72  69 E9        30.12R
LITTLE ROCK    SUNNY     84  68  58 NE12      30.11R

......OKLAHOMA.......

CITY           SKY/WX    TMP DP  RH WIND       PRES   REMARKS
TULSA          PTSUNNY   82  74  76 VRB3      30.13R
PONCA CITY     CLOUDY    77  69  76 E3        30.16R
MCALESTER      MOSUNNY   83  74  74 CALM      30.13R
OKLAHOMA CITY  MOSUNNY   83  74  74 SE5       30.15R

......IOWA............

CITY           SKY/WX    TMP DP  RH WIND       PRES   REMARKS
DES MOINES     SUNNY     75  59  57 W8        30.15R
QUAD CITIES    SUNNY     75  60  59 W10       30.11R

......ILLINOIS........

CITY           SKY/WX    TMP DP  RH WIND       PRES   REMARKS
QUINCY         SUNNY     75  61  61 NW8       30.17R
CHICAGO        SUNNY     75  59  57 W8        30.06R



USA.gov is the U.S. government's official web portal to all federal, state and local government web resources and services.